EXS19E EGPH-LGRP

Flight info

Callsign EXS19E
Flight time 4h 13m
Altitude 33000
Route TLA Y96 HAVEN DCT OTBUN DCT ERKIT N110 DOLAS DCT NAVPI DCT TIVUN DCT ESAMA/N0455F350 DCT OSBIT DCT TENLO DCT LAMSI DCT NIDLO DCT VABEK UL603 OLOTA DCT RUGAS DCT GIKAS DCT MES UN139 LURUS UL995 CODIC
Aircraft A321/M-SDE3FGHIRWY/LB1

Departure

Time 2026-05-06 08:42
Airport Edinburgh Airport (EGPH)

Arrival

Time 2026-05-06 12:56
Airport Rhodes International Airport "Diagoras" (LGRP)
Time Latitude Longitude Altitude Speed Heading
2026-05-06 08:23 55.94798 -3.35682 117 ft 0 kts 208°
2026-05-06 08:33 55.94801 -3.35680 112 ft 3 kts 209°
2026-05-06 08:34 55.94823 -3.35655 112 ft 4 kts 221°
2026-05-06 08:34 55.94846 -3.35581 112 ft 4 kts 284°
2026-05-06 08:34 55.94844 -3.35567 112 ft 0 kts 298°
2026-05-06 08:37 55.94846 -3.35574 112 ft 2 kts 298°
2026-05-06 08:37 55.94853 -3.35596 112 ft 4 kts 298°
2026-05-06 08:37 55.94880 -3.35687 113 ft 13 kts 298°
2026-05-06 08:38 55.94926 -3.35823 113 ft 12 kts 313°
2026-05-06 08:38 55.94996 -3.35842 113 ft 10 kts 24°
2026-05-06 08:38 55.95056 -3.35790 114 ft 9 kts 25°
2026-05-06 08:38 55.95107 -3.35821 114 ft 8 kts 310°
2026-05-06 08:39 55.95134 -3.35903 114 ft 8 kts 309°
2026-05-06 08:39 55.95192 -3.35970 115 ft 12 kts 332°
2026-05-06 08:39 55.95263 -3.35898 113 ft 15 kts 58°
2026-05-06 08:39 55.95321 -3.35726 112 ft 16 kts 59°
2026-05-06 08:40 55.95377 -3.35561 114 ft 15 kts 59°
2026-05-06 08:40 55.95429 -3.35412 114 ft 13 kts 48°
2026-05-06 08:40 55.95476 -3.35415 113 ft 1 kts 329°
2026-05-06 08:40 55.95482 -3.35422 114 ft 1 kts 329°
2026-05-06 08:41 55.95490 -3.35430 115 ft 5 kts 329°
2026-05-06 08:41 55.95551 -3.35496 113 ft 13 kts 329°
2026-05-06 08:41 55.95567 -3.35573 113 ft 3 kts 240°
2026-05-06 08:41 55.95546 -3.35635 112 ft 15 kts 239°
2026-05-06 08:42 55.95363 -3.36179 109 ft 89 kts 238°
2026-05-06 08:42 55.94928 -3.37458 111 ft 150 kts 238°
2026-05-06 08:42 55.94306 -3.39287 226 ft 187 kts 239°
2026-05-06 08:42 55.93668 -3.41270 970 ft 188 kts 239°
2026-05-06 08:43 55.92985 -3.43324 1591 ft 201 kts 236°
2026-05-06 08:43 55.92201 -3.45549 1961 ft 223 kts 236°
2026-05-06 08:43 55.91329 -3.48003 2457 ft 241 kts 236°
2026-05-06 08:43 55.90419 -3.50581 3096 ft 258 kts 236°
2026-05-06 08:44 55.89301 -3.53118 4004 ft 263 kts 218°
2026-05-06 08:44 55.87716 -3.54690 4756 ft 263 kts 194°
2026-05-06 08:44 55.85897 -3.54885 5473 ft 266 kts 168°
2026-05-06 08:44 55.84167 -3.53710 6187 ft 270 kts 155°
2026-05-06 08:45 55.82396 -3.52507 6843 ft 275 kts 162°
2026-05-06 08:45 55.80569 -3.51526 7480 ft 280 kts 165°
2026-05-06 08:45 55.78686 -3.50602 8191 ft 282 kts 166°
2026-05-06 08:45 55.76772 -3.49677 8850 ft 287 kts 166°
2026-05-06 08:46 55.74837 -3.48720 9541 ft 290 kts 165°
2026-05-06 08:46 55.72884 -3.47716 10185 ft 294 kts 165°
2026-05-06 08:46 55.70863 -3.46646 10394 ft 314 kts 164°
2026-05-06 08:46 55.68703 -3.45480 10528 ft 335 kts 164°
2026-05-06 08:47 55.66411 -3.44234 10657 ft 355 kts 164°
2026-05-06 08:47 55.63986 -3.42912 10776 ft 373 kts 164°
2026-05-06 08:47 55.61470 -3.41543 11129 ft 383 kts 164°
2026-05-06 08:47 55.58907 -3.40151 11679 ft 387 kts 164°
2026-05-06 08:48 55.56326 -3.38713 12259 ft 391 kts 161°
2026-05-06 08:48 55.53881 -3.36565 12829 ft 396 kts 148°
2026-05-06 08:48 55.51743 -3.33454 13389 ft 402 kts 134°
2026-05-06 08:48 55.50051 -3.29512 13921 ft 407 kts 121°
2026-05-06 08:49 55.48902 -3.24936 14387 ft 411 kts 107°
2026-05-06 08:49 55.48293 -3.19987 14863 ft 414 kts 100°
2026-05-06 08:49 55.47766 -3.14975 15318 ft 417 kts 100°
2026-05-06 08:49 55.47230 -3.09934 15780 ft 420 kts 101°
2026-05-06 08:50 55.46683 -3.04856 16239 ft 423 kts 101°
2026-05-06 08:50 55.45909 -2.99845 16692 ft 426 kts 110°
2026-05-06 08:50 55.44682 -2.95083 17145 ft 428 kts 120°
2026-05-06 08:50 55.43219 -2.90508 17592 ft 431 kts 120°
2026-05-06 08:51 55.41747 -2.85902 18036 ft 433 kts 120°
2026-05-06 08:51 55.40266 -2.81256 18474 ft 436 kts 120°
2026-05-06 08:51 55.38774 -2.76586 18862 ft 439 kts 121°
2026-05-06 08:51 55.37275 -2.71907 19285 ft 440 kts 121°
2026-05-06 08:52 55.36274 -2.68793 19545 ft 442 kts 121°
2026-05-06 08:52 55.34756 -2.64083 19942 ft 444 kts 121°
2026-05-06 08:52 55.33228 -2.59345 20325 ft 447 kts 121°
2026-05-06 08:52 55.31691 -2.54584 20716 ft 449 kts 121°
2026-05-06 08:53 55.30144 -2.49801 21091 ft 452 kts 121°
2026-05-06 08:53 55.28390 -2.45226 21455 ft 452 kts 130°
2026-05-06 08:53 55.26266 -2.41171 21822 ft 452 kts 139°
2026-05-06 08:53 55.23831 -2.37672 22165 ft 453 kts 145°
2026-05-06 08:54 55.21314 -2.34328 22532 ft 455 kts 145°
2026-05-06 08:54 55.18782 -2.30970 22907 ft 458 kts 145°
2026-05-06 08:54 55.16234 -2.27592 23274 ft 460 kts 145°
2026-05-06 08:54 55.13672 -2.24209 23631 ft 462 kts 145°
2026-05-06 08:55 55.11096 -2.20817 23922 ft 464 kts 145°
2026-05-06 08:55 55.08545 -2.17462 24223 ft 466 kts 145°
2026-05-06 08:55 55.05920 -2.14022 24539 ft 467 kts 145°
2026-05-06 08:55 55.03348 -2.10647 24826 ft 469 kts 145°
2026-05-06 08:56 55.00736 -2.07227 25130 ft 471 kts 145°
2026-05-06 08:56 54.98110 -2.03789 25403 ft 472 kts 145°
2026-05-06 08:56 54.95480 -2.00347 25695 ft 474 kts 146°
2026-05-06 08:56 54.92838 -1.96900 25978 ft 476 kts 146°
2026-05-06 08:57 54.90188 -1.93449 26310 ft 476 kts 146°
2026-05-06 08:57 54.87541 -1.90004 26710 ft 475 kts 146°
2026-05-06 08:57 54.84895 -1.86575 27104 ft 474 kts 146°
2026-05-06 08:57 54.82257 -1.83150 27463 ft 473 kts 146°
2026-05-06 08:58 54.79632 -1.79736 27836 ft 472 kts 146°
2026-05-06 08:58 54.77005 -1.76329 28217 ft 471 kts 146°
2026-05-06 08:58 54.74380 -1.72944 28574 ft 470 kts 146°
2026-05-06 08:58 54.71755 -1.69572 28905 ft 470 kts 146°
2026-05-06 08:59 54.69128 -1.66208 29264 ft 469 kts 147°
2026-05-06 08:59 54.66505 -1.62852 29620 ft 468 kts 147°
2026-05-06 08:59 54.63894 -1.59502 29980 ft 467 kts 146°
2026-05-06 08:59 54.61289 -1.56158 30320 ft 466 kts 147°
2026-05-06 09:00 54.58684 -1.52833 30622 ft 465 kts 147°
2026-05-06 09:00 54.56081 -1.49518 30932 ft 464 kts 147°
2026-05-06 09:00 54.53482 -1.46222 31240 ft 463 kts 147°
2026-05-06 09:00 54.50894 -1.42938 31545 ft 462 kts 147°
2026-05-06 09:01 54.48310 -1.39654 31835 ft 462 kts 147°
2026-05-06 09:01 54.45728 -1.36372 32124 ft 461 kts 147°
2026-05-06 09:01 54.43146 -1.33109 32427 ft 460 kts 147°
2026-05-06 09:01 54.40570 -1.29857 32727 ft 459 kts 147°
2026-05-06 09:02 54.38001 -1.26605 33005 ft 459 kts 147°
2026-05-06 09:02 54.32924 -1.20218 33081 ft 458 kts 147°
2026-05-06 09:03 54.27777 -1.13789 33080 ft 458 kts 147°
2026-05-06 09:03 54.22640 -1.07361 33080 ft 458 kts 147°
2026-05-06 09:04 54.17495 -1.00943 33076 ft 458 kts 147°
2026-05-06 09:04 54.12348 -0.94554 33064 ft 458 kts 147°
2026-05-06 09:05 54.07515 -0.87462 33067 ft 462 kts 137°
2026-05-06 09:05 54.03066 -0.79575 33065 ft 462 kts 136°
2026-05-06 09:06 53.98622 -0.71671 33047 ft 462 kts 136°
2026-05-06 09:06 53.94167 -0.63788 33059 ft 462 kts 136°
2026-05-06 09:07 53.89700 -0.55937 33057 ft 462 kts 137°
2026-05-06 09:07 53.85228 -0.48107 33057 ft 462 kts 137°
2026-05-06 09:08 53.80745 -0.40286 33052 ft 462 kts 137°
2026-05-06 09:08 53.76261 -0.32483 33054 ft 463 kts 137°
2026-05-06 09:09 53.71810 -0.24744 33056 ft 462 kts 137°
2026-05-06 09:09 53.67320 -0.16973 33056 ft 462 kts 137°
2026-05-06 09:10 53.62826 -0.09219 33053 ft 462 kts 137°
2026-05-06 09:10 53.58328 -0.01475 33054 ft 462 kts 137°
2026-05-06 09:11 53.53829 0.06234 33034 ft 461 kts 137°
2026-05-06 09:11 53.49336 0.13900 33032 ft 460 kts 137°
2026-05-06 09:12 53.44838 0.21546 33022 ft 460 kts 137°
2026-05-06 09:12 53.40341 0.29183 33021 ft 460 kts 137°
2026-05-06 09:13 53.35835 0.36813 33022 ft 461 kts 137°
2026-05-06 09:13 53.31320 0.44422 33008 ft 460 kts 137°
2026-05-06 09:14 53.26832 0.52053 33001 ft 461 kts 132°
2026-05-06 09:14 53.25059 0.56522 33000 ft 464 kts 118°
2026-05-06 09:14 53.23614 0.61359 33003 ft 465 kts 118°
2026-05-06 09:15 53.20747 0.71046 33008 ft 466 kts 118°
2026-05-06 09:15 53.17886 0.80733 33005 ft 465 kts 118°
2026-05-06 09:16 53.15013 0.90398 32999 ft 466 kts 118°
2026-05-06 09:16 53.12120 1.00045 32997 ft 465 kts 118°
2026-05-06 09:17 53.09222 1.09671 32995 ft 465 kts 118°
2026-05-06 09:17 53.06323 1.19273 32990 ft 464 kts 119°
2026-05-06 09:18 53.03414 1.28847 32983 ft 465 kts 118°
2026-05-06 09:18 53.00499 1.38426 32989 ft 464 kts 118°
2026-05-06 09:19 52.97579 1.47973 32988 ft 464 kts 118°
2026-05-06 09:19 52.94659 1.57486 32976 ft 461 kts 118°
2026-05-06 09:20 52.91755 1.66928 32959 ft 459 kts 118°
2026-05-06 09:20 52.88844 1.76349 32982 ft 459 kts 118°
2026-05-06 09:21 52.85923 1.85754 32964 ft 459 kts 118°
2026-05-06 09:21 52.82991 1.95140 32965 ft 459 kts 118°
2026-05-06 09:22 52.80049 2.04517 32983 ft 458 kts 119°
2026-05-06 09:22 52.77120 2.13824 32968 ft 456 kts 119°
2026-05-06 09:23 52.74205 2.23102 32972 ft 455 kts 119°
2026-05-06 09:23 52.71283 2.32352 32973 ft 454 kts 119°
2026-05-06 09:24 52.68371 2.41516 32967 ft 454 kts 119°
2026-05-06 09:24 52.65432 2.50723 32962 ft 454 kts 120°
2026-05-06 09:25 52.62489 2.59913 32963 ft 453 kts 120°
2026-05-06 09:25 52.59545 2.69074 32958 ft 453 kts 120°
2026-05-06 09:26 52.56593 2.78223 32958 ft 453 kts 120°
2026-05-06 09:26 52.53659 2.87374 32954 ft 453 kts 118°
2026-05-06 09:27 52.50966 2.96745 32952 ft 454 kts 116°
2026-05-06 09:27 52.48388 3.06188 32937 ft 452 kts 117°
2026-05-06 09:28 52.45767 3.15533 32942 ft 451 kts 118°
2026-05-06 09:28 52.43090 3.24823 32920 ft 450 kts 116°
2026-05-06 09:29 52.40394 3.34081 32924 ft 450 kts 118°
2026-05-06 09:29 52.37704 3.43339 32918 ft 450 kts 117°
2026-05-06 09:30 52.35020 3.52573 32919 ft 448 kts 117°
2026-05-06 09:30 52.32357 3.61706 32916 ft 447 kts 117°
2026-05-06 09:31 52.29669 3.70867 32916 ft 447 kts 117°
2026-05-06 09:31 52.26974 3.80014 32918 ft 447 kts 117°
2026-05-06 09:32 52.24276 3.89152 32915 ft 447 kts 118°
2026-05-06 09:32 52.21573 3.98276 32908 ft 447 kts 117°
2026-05-06 09:33 52.18856 4.07401 32908 ft 447 kts 117°
2026-05-06 09:33 52.16136 4.16498 32899 ft 447 kts 117°
2026-05-06 09:34 52.13412 4.25607 32900 ft 447 kts 118°
2026-05-06 09:34 52.10681 4.34693 32882 ft 447 kts 117°
2026-05-06 09:35 52.07931 4.43773 32885 ft 447 kts 118°
2026-05-06 09:35 52.05180 4.52819 32876 ft 447 kts 117°
2026-05-06 09:36 52.02422 4.61881 32889 ft 447 kts 118°
2026-05-06 09:36 51.99658 4.70917 32876 ft 447 kts 117°
2026-05-06 09:37 51.96891 4.79955 32873 ft 447 kts 118°
2026-05-06 09:37 51.94580 4.87454 32876 ft 447 kts 118°
2026-05-06 09:38 51.91848 4.96291 32872 ft 445 kts 118°
2026-05-06 09:38 51.89075 5.05238 32871 ft 444 kts 117°
2026-05-06 09:39 51.86297 5.14172 32868 ft 445 kts 118°
2026-05-06 09:39 51.83514 5.23100 32861 ft 444 kts 117°
2026-05-06 09:40 51.80720 5.32002 32858 ft 445 kts 118°
2026-05-06 09:40 51.76525 5.45324 32847 ft 443 kts 118°
2026-05-06 09:41 51.73723 5.54186 32859 ft 443 kts 118°
2026-05-06 09:41 51.70917 5.63035 32864 ft 442 kts 118°
2026-05-06 09:42 51.68106 5.71868 32867 ft 444 kts 119°
2026-05-06 09:42 51.65276 5.80698 32856 ft 444 kts 118°
2026-05-06 09:43 51.62429 5.89546 32859 ft 446 kts 118°
2026-05-06 09:43 51.59574 5.98430 32843 ft 446 kts 119°
2026-05-06 09:44 51.56712 6.07281 32832 ft 447 kts 118°
2026-05-06 09:44 51.53840 6.16127 32840 ft 446 kts 119°
2026-05-06 09:45 51.50966 6.24962 32843 ft 446 kts 119°
2026-05-06 09:45 51.48076 6.33821 32827 ft 449 kts 119°
2026-05-06 09:46 51.45170 6.42683 32834 ft 449 kts 119°
2026-05-06 09:46 51.42253 6.51534 32821 ft 449 kts 119°
2026-05-06 09:47 51.39346 6.60341 32816 ft 449 kts 119°
2026-05-06 09:47 51.36410 6.69224 32820 ft 451 kts 119°
2026-05-06 09:48 51.33456 6.78103 32809 ft 452 kts 120°
2026-05-06 09:48 51.30495 6.86956 32811 ft 452 kts 120°
2026-05-06 09:49 51.27530 6.95799 32809 ft 452 kts 120°
2026-05-06 09:49 51.24564 7.04650 32806 ft 452 kts 120°
2026-05-06 09:50 51.21588 7.13472 32798 ft 452 kts 120°
2026-05-06 09:50 51.18606 7.22281 32785 ft 451 kts 120°
2026-05-06 09:51 51.15621 7.31064 32784 ft 451 kts 120°
2026-05-06 09:51 51.12648 7.39781 32783 ft 451 kts 120°
2026-05-06 09:52 51.09689 7.48432 32786 ft 451 kts 120°
2026-05-06 09:52 51.07980 7.52592 32769 ft 448 kts 132°
2026-05-06 09:52 51.05954 7.56362 32777 ft 448 kts 133°
2026-05-06 09:53 51.01887 7.63872 32772 ft 449 kts 134°
2026-05-06 09:53 50.97801 7.71396 32772 ft 450 kts 134°
2026-05-06 09:54 50.93715 7.78913 32773 ft 450 kts 134°
2026-05-06 09:54 50.89623 7.86413 32776 ft 450 kts 134°
2026-05-06 09:55 50.85527 7.93894 32778 ft 450 kts 134°
2026-05-06 09:55 50.81422 8.01371 32768 ft 450 kts 135°
2026-05-06 09:56 50.77294 8.08861 32786 ft 452 kts 135°
2026-05-06 09:56 50.73153 8.16342 32782 ft 453 kts 135°
2026-05-06 09:57 50.69006 8.23822 32781 ft 453 kts 135°
2026-05-06 09:57 50.64862 8.31285 32777 ft 453 kts 135°
2026-05-06 09:58 50.60707 8.38744 32755 ft 452 kts 135°
2026-05-06 09:58 50.56556 8.46181 32744 ft 452 kts 135°
2026-05-06 09:59 50.52402 8.53598 32755 ft 451 kts 135°
2026-05-06 09:59 50.48243 8.60976 32755 ft 451 kts 136°
2026-05-06 10:00 50.44078 8.68355 32762 ft 451 kts 136°
2026-05-06 10:00 50.39913 8.75725 32761 ft 452 kts 136°
2026-05-06 10:01 50.35762 8.83097 32760 ft 453 kts 133°
2026-05-06 10:01 50.32482 8.91607 32768 ft 461 kts 118°
2026-05-06 10:02 50.29844 9.00752 32759 ft 461 kts 118°
2026-05-06 10:02 50.27210 9.09814 32766 ft 460 kts 119°
2026-05-06 10:03 50.24552 9.18912 32766 ft 460 kts 119°
2026-05-06 10:03 50.21891 9.28003 32773 ft 460 kts 120°
2026-05-06 10:04 50.19223 9.37089 32765 ft 460 kts 120°
2026-05-06 10:04 50.16553 9.46163 32773 ft 460 kts 120°
2026-05-06 10:05 50.13878 9.55225 32775 ft 460 kts 120°
2026-05-06 10:05 50.11190 9.64277 32771 ft 460 kts 120°
2026-05-06 10:06 50.08493 9.73303 32790 ft 460 kts 121°
2026-05-06 10:06 50.05463 9.81962 32790 ft 452 kts 129°
2026-05-06 10:07 50.02004 9.90131 32782 ft 452 kts 129°
2026-05-06 10:07 49.98543 9.98304 32778 ft 451 kts 129°
2026-05-06 10:08 49.95108 10.06408 32751 ft 449 kts 130°
2026-05-06 10:08 49.91651 10.14521 32785 ft 451 kts 130°
2026-05-06 10:09 49.88181 10.22627 32798 ft 451 kts 130°
2026-05-06 10:09 49.84711 10.30733 32791 ft 451 kts 130°
2026-05-06 10:10 49.81233 10.38833 32795 ft 451 kts 130°
2026-05-06 10:10 49.77740 10.46908 32781 ft 452 kts 130°
2026-05-06 10:11 49.74231 10.55013 32801 ft 455 kts 130°
2026-05-06 10:11 49.70706 10.63146 32802 ft 455 kts 130°
2026-05-06 10:12 49.67157 10.71287 32801 ft 459 kts 130°
2026-05-06 10:12 49.63580 10.79452 32809 ft 459 kts 131°
2026-05-06 10:13 49.59999 10.87623 32814 ft 461 kts 130°
2026-05-06 10:13 49.56436 10.95772 32808 ft 462 kts 130°
2026-05-06 10:14 49.52848 11.03985 32808 ft 464 kts 127°
2026-05-06 10:14 49.49851 11.12877 32809 ft 469 kts 123°
2026-05-06 10:15 49.46920 11.21830 32810 ft 469 kts 123°
2026-05-06 10:15 49.43959 11.30777 32815 ft 470 kts 123°
2026-05-06 10:16 49.40992 11.39737 32810 ft 471 kts 123°
2026-05-06 10:16 49.38026 11.48687 32809 ft 471 kts 123°
2026-05-06 10:17 49.35049 11.57625 32810 ft 470 kts 124°
2026-05-06 10:17 49.32061 11.66548 32799 ft 470 kts 124°
2026-05-06 10:18 49.29064 11.75451 32808 ft 470 kts 124°
2026-05-06 10:18 49.26072 11.84353 32814 ft 470 kts 124°
2026-05-06 10:19 49.23069 11.93230 32809 ft 470 kts 124°
2026-05-06 10:19 49.20058 12.02112 32821 ft 470 kts 124°
2026-05-06 10:20 49.17046 12.10961 32816 ft 468 kts 124°
2026-05-06 10:20 49.14029 12.19770 32814 ft 468 kts 124°
2026-05-06 10:21 49.11522 12.27076 32817 ft 468 kts 124°
2026-05-06 10:21 49.08505 12.35875 32814 ft 468 kts 124°
2026-05-06 10:22 49.05486 12.44652 32795 ft 467 kts 125°
2026-05-06 10:22 49.02450 12.53426 32827 ft 468 kts 125°
2026-05-06 10:23 48.99402 12.62194 32804 ft 469 kts 125°
2026-05-06 10:23 48.96345 12.70957 32825 ft 469 kts 125°
2026-05-06 10:24 48.93281 12.79708 32805 ft 469 kts 125°
2026-05-06 10:24 48.90218 12.88454 32808 ft 469 kts 125°
2026-05-06 10:25 48.87147 12.97193 32824 ft 469 kts 125°
2026-05-06 10:25 48.84069 13.05913 32805 ft 469 kts 125°
2026-05-06 10:26 48.80975 13.14625 32822 ft 469 kts 125°
2026-05-06 10:26 48.77877 13.23325 32822 ft 469 kts 126°
2026-05-06 10:27 48.74775 13.32020 32807 ft 469 kts 126°
2026-05-06 10:27 48.71666 13.40715 32817 ft 469 kts 126°
2026-05-06 10:28 48.68550 13.49387 32822 ft 469 kts 126°
2026-05-06 10:28 48.65213 13.57776 32819 ft 459 kts 136°
2026-05-06 10:29 48.60805 13.64543 32819 ft 450 kts 146°
2026-05-06 10:29 48.56151 13.70862 32821 ft 450 kts 146°
2026-05-06 10:30 48.51500 13.77205 32821 ft 450 kts 145°
2026-05-06 10:30 48.46851 13.83536 32804 ft 450 kts 146°
2026-05-06 10:31 48.42184 13.89861 32821 ft 452 kts 146°
2026-05-06 10:31 48.37534 13.96147 32816 ft 453 kts 145°
2026-05-06 10:32 48.32831 14.02481 32827 ft 454 kts 146°
2026-05-06 10:32 48.28130 14.08799 32839 ft 454 kts 146°
2026-05-06 10:33 48.23426 14.15104 32830 ft 453 kts 146°
2026-05-06 10:33 48.18715 14.21409 32847 ft 453 kts 146°
2026-05-06 10:34 48.14046 14.27644 32837 ft 454 kts 146°
2026-05-06 10:34 48.09334 14.33912 32832 ft 454 kts 146°
2026-05-06 10:35 48.04614 14.40179 32826 ft 454 kts 146°
2026-05-06 10:35 47.99896 14.46439 32821 ft 453 kts 146°
2026-05-06 10:36 47.95175 14.52672 32816 ft 453 kts 146°
2026-05-06 10:36 47.90444 14.58902 32822 ft 455 kts 146°
2026-05-06 10:37 47.85686 14.65157 32820 ft 456 kts 146°
2026-05-06 10:37 47.80927 14.71393 32828 ft 456 kts 146°
2026-05-06 10:38 47.76160 14.77622 32824 ft 456 kts 146°
2026-05-06 10:38 47.71391 14.83836 32838 ft 456 kts 146°
2026-05-06 10:39 47.66604 14.90055 32849 ft 459 kts 146°
2026-05-06 10:39 47.61810 14.96278 32851 ft 458 kts 146°
2026-05-06 10:40 47.57020 15.02482 32856 ft 458 kts 146°
2026-05-06 10:40 47.52223 15.08680 32864 ft 458 kts 146°
2026-05-06 10:41 47.47424 15.14871 32864 ft 457 kts 146°
2026-05-06 10:41 47.42611 15.21050 32873 ft 460 kts 146°
2026-05-06 10:42 47.37753 15.27260 32876 ft 464 kts 146°
2026-05-06 10:42 47.32869 15.33496 32876 ft 465 kts 146°
2026-05-06 10:43 47.27980 15.39735 32876 ft 465 kts 146°
2026-05-06 10:44 47.20632 15.49061 32885 ft 465 kts 145°
2026-05-06 10:44 47.15732 15.55277 32865 ft 466 kts 146°
2026-05-06 10:45 47.10794 15.61521 32887 ft 470 kts 146°
2026-05-06 10:45 47.05856 15.67732 32887 ft 470 kts 146°
2026-05-06 10:46 47.00886 15.73978 32892 ft 471 kts 146°
2026-05-06 10:46 46.95926 15.80212 32890 ft 470 kts 145°
2026-05-06 10:47 46.90956 15.86427 32891 ft 469 kts 145°
2026-05-06 10:47 46.85973 15.92638 32890 ft 472 kts 145°
2026-05-06 10:48 46.80971 15.98864 32904 ft 473 kts 145°
2026-05-06 10:48 46.76022 16.05210 32902 ft 474 kts 143°
2026-05-06 10:49 46.71179 16.11756 32909 ft 475 kts 142°
2026-05-06 10:49 46.66343 16.18293 32909 ft 474 kts 143°
2026-05-06 10:50 46.61465 16.24763 32921 ft 474 kts 144°
2026-05-06 10:50 46.56580 16.31177 32918 ft 473 kts 144°
2026-05-06 10:51 46.51694 16.37593 32931 ft 474 kts 143°
2026-05-06 10:51 46.46804 16.44017 32929 ft 474 kts 143°
2026-05-06 10:52 46.41909 16.50440 32928 ft 474 kts 143°
2026-05-06 10:52 46.37010 16.56847 32929 ft 474 kts 143°
2026-05-06 10:53 46.32116 16.63221 32936 ft 473 kts 144°
2026-05-06 10:53 46.27225 16.69576 32931 ft 472 kts 143°
2026-05-06 10:54 46.22335 16.75910 32939 ft 472 kts 143°
2026-05-06 10:54 46.17441 16.82237 32939 ft 472 kts 143°
2026-05-06 10:55 46.12579 16.88514 32935 ft 472 kts 143°
2026-05-06 10:55 46.07685 16.94811 32943 ft 471 kts 143°
2026-05-06 10:56 46.02793 17.01092 32944 ft 471 kts 143°
2026-05-06 10:56 45.97895 17.07361 32944 ft 471 kts 143°
2026-05-06 10:57 45.92992 17.13609 32944 ft 471 kts 143°
2026-05-06 10:57 45.88096 17.19862 32926 ft 471 kts 143°
2026-05-06 10:58 45.83184 17.26123 32944 ft 473 kts 143°
2026-05-06 10:58 45.78252 17.32370 32948 ft 473 kts 143°
2026-05-06 10:59 45.73512 17.38364 32946 ft 473 kts 143°
2026-05-06 10:59 45.68568 17.44601 32949 ft 474 kts 143°
2026-05-06 11:00 45.63620 17.50832 32956 ft 475 kts 143°
2026-05-06 11:00 45.61136 17.53949 32815 ft 475 kts 142°
2026-05-06 11:00 45.58672 17.57038 32983 ft 468 kts 139°
2026-05-06 11:01 45.53801 17.63141 33009 ft 464 kts 139°
2026-05-06 11:01 45.48969 17.69186 33009 ft 460 kts 139°
2026-05-06 11:02 45.44162 17.75176 33008 ft 457 kts 139°
2026-05-06 11:02 45.39387 17.81105 33009 ft 454 kts 139°
2026-05-06 11:03 45.34676 17.86962 33009 ft 451 kts 139°
2026-05-06 11:03 45.29930 17.92845 33009 ft 448 kts 139°
2026-05-06 11:04 45.25238 17.98644 33009 ft 446 kts 139°
2026-05-06 11:04 45.20605 18.04350 33009 ft 443 kts 139°
2026-05-06 11:05 45.15959 18.10044 33009 ft 440 kts 139°
2026-05-06 11:05 45.11349 18.15703 33009 ft 437 kts 139°
2026-05-06 11:06 45.06770 18.21323 33009 ft 434 kts 139°
2026-05-06 11:06 45.02212 18.26900 33009 ft 432 kts 139°
2026-05-06 11:07 44.98440 18.31498 33009 ft 430 kts 140°
2026-05-06 11:07 44.93920 18.36989 33009 ft 427 kts 140°
2026-05-06 11:08 44.89429 18.42442 33009 ft 425 kts 140°
2026-05-06 11:08 44.84957 18.47866 33009 ft 423 kts 140°
2026-05-06 11:09 44.80508 18.53247 33009 ft 421 kts 140°
2026-05-06 11:09 44.76073 18.58595 33009 ft 419 kts 140°
2026-05-06 11:10 44.71659 18.63906 33009 ft 416 kts 140°
2026-05-06 11:10 44.67267 18.69182 33009 ft 415 kts 140°
2026-05-06 11:11 44.62918 18.74397 33009 ft 413 kts 140°
2026-05-06 11:11 44.58559 18.79605 33009 ft 411 kts 140°
2026-05-06 11:12 44.54215 18.84784 33009 ft 409 kts 140°
2026-05-06 11:12 44.49887 18.89939 33009 ft 408 kts 140°
2026-05-06 11:13 44.45580 18.95075 33009 ft 406 kts 140°
2026-05-06 11:13 44.41282 19.00182 33009 ft 405 kts 140°
2026-05-06 11:14 44.36993 19.05261 33009 ft 403 kts 140°
2026-05-06 11:14 44.32716 19.10313 33009 ft 402 kts 140°
2026-05-06 11:15 44.28453 19.15342 33009 ft 401 kts 140°
2026-05-06 11:15 44.24204 19.20353 33009 ft 399 kts 140°
2026-05-06 11:16 44.19962 19.25342 33009 ft 398 kts 140°
2026-05-06 11:16 44.15728 19.30308 33009 ft 397 kts 140°
2026-05-06 11:17 44.11531 19.35221 33009 ft 396 kts 140°
2026-05-06 11:17 44.07289 19.40179 33009 ft 395 kts 140°
2026-05-06 11:18 44.03112 19.45051 33009 ft 394 kts 140°
2026-05-06 11:18 43.98912 19.49930 33008 ft 393 kts 140°
2026-05-06 11:19 43.94723 19.54800 33009 ft 392 kts 140°
2026-05-06 11:19 43.90543 19.59655 33009 ft 391 kts 140°
2026-05-06 11:20 43.86371 19.64488 33009 ft 391 kts 140°
2026-05-06 11:20 43.82200 19.69297 33009 ft 390 kts 140°
2026-05-06 11:21 43.78042 19.74100 33009 ft 389 kts 140°
2026-05-06 11:21 43.73889 19.78880 33009 ft 388 kts 141°
2026-05-06 11:22 43.69739 19.83646 33009 ft 387 kts 141°
2026-05-06 11:22 43.65601 19.88393 33009 ft 386 kts 141°
2026-05-06 11:23 43.61462 19.93119 33010 ft 386 kts 141°
2026-05-06 11:23 43.57351 19.97801 33009 ft 386 kts 141°
2026-05-06 11:24 43.53223 20.02515 33010 ft 385 kts 141°
2026-05-06 11:24 43.49097 20.07218 33009 ft 384 kts 141°
2026-05-06 11:25 43.45004 20.11862 33009 ft 384 kts 141°
2026-05-06 11:25 43.40886 20.16527 33009 ft 383 kts 141°
2026-05-06 11:26 43.36778 20.21185 33009 ft 383 kts 141°
2026-05-06 11:26 43.32714 20.25785 33010 ft 382 kts 141°
2026-05-06 11:27 43.28610 20.30416 33009 ft 382 kts 141°
2026-05-06 11:27 43.24509 20.35036 33009 ft 381 kts 141°
2026-05-06 11:28 43.20401 20.39636 33009 ft 381 kts 141°
2026-05-06 11:28 43.16305 20.44226 33009 ft 380 kts 141°
2026-05-06 11:29 43.12213 20.48815 33009 ft 380 kts 141°
2026-05-06 11:29 43.08128 20.53385 33009 ft 379 kts 141°
2026-05-06 11:30 43.04040 20.57944 33009 ft 379 kts 141°
2026-05-06 11:30 42.99965 20.62500 33008 ft 378 kts 140°
2026-05-06 11:31 42.96093 20.67363 33009 ft 378 kts 136°
2026-05-06 11:31 42.92385 20.72367 33009 ft 377 kts 135°
2026-05-06 11:32 42.88637 20.77373 33009 ft 377 kts 136°
2026-05-06 11:32 42.84855 20.82307 33009 ft 376 kts 137°
2026-05-06 11:33 42.81066 20.87214 33009 ft 375 kts 137°
2026-05-06 11:33 42.77286 20.92112 33009 ft 375 kts 136°
2026-05-06 11:34 42.73519 20.97001 33009 ft 374 kts 137°
2026-05-06 11:34 42.69751 21.01876 33009 ft 373 kts 137°
2026-05-06 11:35 42.65989 21.06729 33009 ft 373 kts 137°
2026-05-06 11:35 42.62234 21.11575 33009 ft 372 kts 137°
2026-05-06 11:36 42.58489 21.16403 33009 ft 371 kts 137°
2026-05-06 11:36 42.54741 21.21213 33009 ft 370 kts 137°
2026-05-06 11:37 42.51005 21.26009 33009 ft 369 kts 137°
2026-05-06 11:37 42.47276 21.30784 33009 ft 369 kts 137°
2026-05-06 11:38 42.43547 21.35545 33009 ft 368 kts 137°
2026-05-06 11:38 42.39827 21.40288 33009 ft 367 kts 137°
2026-05-06 11:39 42.36118 21.45006 33009 ft 366 kts 137°
2026-05-06 11:39 42.32415 21.49709 33009 ft 365 kts 137°
2026-05-06 11:40 42.28725 21.54392 33009 ft 363 kts 137°
2026-05-06 11:40 42.25047 21.59064 33009 ft 362 kts 137°
2026-05-06 11:41 42.21396 21.63725 33009 ft 361 kts 136°
2026-05-06 11:41 42.17832 21.68467 33009 ft 359 kts 135°
2026-05-06 11:42 42.14304 21.73212 33009 ft 357 kts 135°
2026-05-06 11:42 42.10774 21.77909 33009 ft 356 kts 136°
2026-05-06 11:43 42.07252 21.82561 33009 ft 354 kts 136°
2026-05-06 11:43 42.03742 21.87183 33009 ft 352 kts 136°
2026-05-06 11:44 41.98509 21.94065 33009 ft 349 kts 136°
2026-05-06 11:44 41.95050 21.98625 33009 ft 347 kts 136°
2026-05-06 11:45 41.91607 22.03147 33009 ft 345 kts 136°
2026-05-06 11:45 41.88187 22.07638 33009 ft 343 kts 136°
2026-05-06 11:46 41.84789 22.12093 33009 ft 340 kts 136°
2026-05-06 11:46 41.81416 22.16498 33009 ft 337 kts 136°
2026-05-06 11:47 41.78077 22.20866 33009 ft 334 kts 136°
2026-05-06 11:47 41.74779 22.25160 32887 ft 335 kts 136°
2026-05-06 11:48 41.73082 22.27338 32615 ft 343 kts 137°
2026-05-06 11:48 41.71365 22.29555 32625 ft 340 kts 136°
2026-05-06 11:48 41.69717 22.31732 32957 ft 327 kts 135°
2026-05-06 11:48 41.68128 22.33879 32908 ft 329 kts 135°
2026-05-06 11:49 41.66453 22.36157 32243 ft 350 kts 136°
2026-05-06 11:49 41.64682 22.38457 31386 ft 369 kts 137°
2026-05-06 11:49 41.62789 22.40851 31103 ft 379 kts 137°
2026-05-06 11:49 41.60855 22.43286 30972 ft 384 kts 137°
2026-05-06 11:50 41.56982 22.48223 31007 ft 386 kts 136°
2026-05-06 11:50 41.53109 22.53226 31009 ft 389 kts 136°
2026-05-06 11:51 41.49214 22.58267 31009 ft 392 kts 136°
2026-05-06 11:51 41.45284 22.63327 31009 ft 394 kts 136°
2026-05-06 11:52 41.41322 22.68409 31009 ft 396 kts 136°
2026-05-06 11:52 41.37334 22.73519 31009 ft 399 kts 136°
2026-05-06 11:53 41.33325 22.78639 31009 ft 401 kts 138°
2026-05-06 11:53 41.28991 22.83322 31009 ft 402 kts 142°
2026-05-06 11:54 41.25346 22.87183 31009 ft 404 kts 142°
2026-05-06 11:54 41.20941 22.91838 31009 ft 405 kts 142°
2026-05-06 11:55 41.16521 22.96512 31009 ft 407 kts 142°
2026-05-06 11:55 41.12077 23.01200 31009 ft 408 kts 142°
2026-05-06 11:56 41.06891 23.06647 31009 ft 410 kts 142°
2026-05-06 11:56 41.03147 23.10589 31009 ft 411 kts 142°
2026-05-06 11:57 40.98665 23.15304 31009 ft 412 kts 142°
2026-05-06 11:57 40.94166 23.20010 31009 ft 413 kts 142°
2026-05-06 11:58 40.89650 23.24718 31009 ft 414 kts 142°
2026-05-06 11:58 40.85126 23.29432 31008 ft 415 kts 142°
2026-05-06 11:59 40.80595 23.34159 31009 ft 416 kts 142°
2026-05-06 11:59 40.76053 23.38887 31009 ft 416 kts 142°
2026-05-06 12:00 40.71499 23.43618 31009 ft 417 kts 142°
2026-05-06 12:00 40.66931 23.48349 31009 ft 418 kts 142°
2026-05-06 12:01 40.62351 23.53079 31009 ft 419 kts 142°
2026-05-06 12:01 40.57764 23.57809 31009 ft 419 kts 142°
2026-05-06 12:02 40.53171 23.62548 31009 ft 420 kts 142°
2026-05-06 12:02 40.48595 23.67255 31009 ft 421 kts 142°
2026-05-06 12:03 40.43978 23.71983 31009 ft 421 kts 142°
2026-05-06 12:03 40.39353 23.76719 31009 ft 422 kts 142°
2026-05-06 12:04 40.34723 23.81459 31008 ft 423 kts 142°
2026-05-06 12:04 40.30088 23.86197 31009 ft 423 kts 142°
2026-05-06 12:05 40.25442 23.90937 31009 ft 423 kts 142°
2026-05-06 12:05 40.20792 23.95664 31009 ft 424 kts 142°
2026-05-06 12:06 40.16135 24.00389 31009 ft 424 kts 142°
2026-05-06 12:06 40.11478 24.05125 31009 ft 424 kts 142°
2026-05-06 12:07 40.06811 24.09848 31009 ft 425 kts 142°
2026-05-06 12:07 40.02165 24.14533 31009 ft 425 kts 142°
2026-05-06 12:08 39.97487 24.19244 31009 ft 425 kts 142°
2026-05-06 12:08 39.92803 24.23957 31009 ft 425 kts 142°
2026-05-06 12:09 39.88118 24.28674 31009 ft 426 kts 142°
2026-05-06 12:09 39.83425 24.33380 31009 ft 426 kts 143°
2026-05-06 12:10 39.78725 24.38077 31009 ft 426 kts 143°
2026-05-06 12:10 39.74020 24.42773 31009 ft 426 kts 143°
2026-05-06 12:11 39.69313 24.47467 31009 ft 427 kts 143°
2026-05-06 12:11 39.64604 24.52162 31009 ft 427 kts 143°
2026-05-06 12:12 39.59892 24.56853 31009 ft 427 kts 143°
2026-05-06 12:12 39.55170 24.61537 31009 ft 427 kts 143°
2026-05-06 12:13 39.50446 24.66216 31009 ft 428 kts 143°
2026-05-06 12:13 39.45739 24.70929 31009 ft 428 kts 142°
2026-05-06 12:14 39.41064 24.75698 31009 ft 428 kts 142°
2026-05-06 12:14 39.36387 24.80460 31009 ft 428 kts 142°
2026-05-06 12:15 39.31697 24.85199 31009 ft 428 kts 142°
2026-05-06 12:15 39.27028 24.89901 31009 ft 428 kts 142°
2026-05-06 12:16 39.22328 24.94629 31009 ft 429 kts 142°
2026-05-06 12:16 39.17618 24.99346 31009 ft 429 kts 142°
2026-05-06 12:17 39.12911 25.04059 31009 ft 429 kts 142°
2026-05-06 12:17 39.08202 25.08777 31009 ft 429 kts 142°
2026-05-06 12:18 39.03489 25.13490 31009 ft 429 kts 142°
2026-05-06 12:18 38.98773 25.18199 31009 ft 429 kts 142°
2026-05-06 12:19 38.94055 25.22898 31009 ft 429 kts 142°
2026-05-06 12:19 38.89328 25.27589 31009 ft 429 kts 142°
2026-05-06 12:20 38.84600 25.32276 31009 ft 430 kts 142°
2026-05-06 12:20 38.79872 25.36965 31009 ft 430 kts 142°
2026-05-06 12:21 38.75142 25.41652 31009 ft 430 kts 142°
2026-05-06 12:21 38.70406 25.46323 31009 ft 430 kts 143°
2026-05-06 12:22 38.65664 25.50989 31009 ft 430 kts 143°
2026-05-06 12:22 38.60917 25.55650 31009 ft 430 kts 143°
2026-05-06 12:23 38.56172 25.60313 31009 ft 430 kts 143°
2026-05-06 12:23 38.51428 25.64973 31009 ft 430 kts 143°
2026-05-06 12:24 38.46675 25.69626 31009 ft 431 kts 143°
2026-05-06 12:24 38.41912 25.74266 31009 ft 431 kts 143°
2026-05-06 12:25 38.37155 25.78905 31009 ft 431 kts 143°
2026-05-06 12:25 38.32394 25.83540 31009 ft 431 kts 143°
2026-05-06 12:26 38.27664 25.88143 31009 ft 431 kts 143°
2026-05-06 12:26 38.22446 25.91824 31009 ft 430 kts 160°
2026-05-06 12:27 38.16811 25.94378 31009 ft 430 kts 161°
2026-05-06 12:27 38.11178 25.96940 31009 ft 430 kts 160°
2026-05-06 12:28 38.05546 25.99519 31009 ft 430 kts 160°
2026-05-06 12:28 37.99912 26.02091 31009 ft 430 kts 160°
2026-05-06 12:29 37.94272 26.04646 31009 ft 430 kts 161°
2026-05-06 12:29 37.88633 26.07190 31009 ft 430 kts 161°
2026-05-06 12:30 37.82992 26.09742 31009 ft 431 kts 160°
2026-05-06 12:30 37.77352 26.12295 31009 ft 431 kts 161°
2026-05-06 12:31 37.71705 26.14841 31009 ft 431 kts 160°
2026-05-06 12:31 37.66061 26.17381 31009 ft 431 kts 161°
2026-05-06 12:32 37.60410 26.19910 31009 ft 431 kts 161°
2026-05-06 12:32 37.54754 26.22441 31007 ft 431 kts 161°
2026-05-06 12:33 37.49103 26.24980 31009 ft 431 kts 161°
2026-05-06 12:33 37.43449 26.27507 31009 ft 431 kts 161°
2026-05-06 12:34 37.37789 26.30029 31009 ft 431 kts 161°
2026-05-06 12:34 37.32134 26.32551 31009 ft 431 kts 161°
2026-05-06 12:35 37.26513 26.35052 31009 ft 432 kts 161°
2026-05-06 12:35 37.20850 26.37563 31009 ft 432 kts 161°
2026-05-06 12:36 37.15189 26.40077 31009 ft 432 kts 161°
2026-05-06 12:36 37.09525 26.42591 31009 ft 432 kts 161°
2026-05-06 12:37 37.03865 26.45104 31009 ft 432 kts 161°
2026-05-06 12:37 36.98195 26.47603 31009 ft 432 kts 161°
2026-05-06 12:38 36.92708 26.50623 31009 ft 432 kts 147°
2026-05-06 12:38 36.88257 26.55618 31009 ft 432 kts 128°
2026-05-06 12:39 36.85333 26.62155 31011 ft 433 kts 113°
2026-05-06 12:39 36.82978 26.69066 31009 ft 433 kts 113°
2026-05-06 12:40 36.80595 26.75969 31009 ft 433 kts 114°
2026-05-06 12:40 36.78213 26.82871 31009 ft 433 kts 114°
2026-05-06 12:41 36.77022 26.86323 30896 ft 434 kts 114°
2026-05-06 12:41 36.75804 26.89839 29521 ft 451 kts 114°
2026-05-06 12:41 36.74546 26.93462 27868 ft 472 kts 114°
2026-05-06 12:41 36.73195 26.97355 25994 ft 493 kts 114°
2026-05-06 12:42 36.71821 27.01306 24089 ft 513 kts 114°
2026-05-06 12:42 36.70395 27.05406 22991 ft 514 kts 114°
2026-05-06 12:42 36.68984 27.09464 22181 ft 506 kts 114°
2026-05-06 12:42 36.67591 27.13459 21373 ft 499 kts 114°
2026-05-06 12:43 36.66216 27.17390 20546 ft 492 kts 114°
2026-05-06 12:43 36.64857 27.21266 19731 ft 485 kts 114°
2026-05-06 12:43 36.63519 27.25083 18931 ft 478 kts 114°
2026-05-06 12:43 36.62199 27.28856 18136 ft 472 kts 114°
2026-05-06 12:44 36.61318 27.31371 17605 ft 467 kts 114°
2026-05-06 12:44 36.60023 27.35052 16832 ft 461 kts 114°
2026-05-06 12:44 36.58740 27.38686 16074 ft 455 kts 114°
2026-05-06 12:44 36.57474 27.42268 15317 ft 449 kts 114°
2026-05-06 12:45 36.56226 27.45802 14557 ft 444 kts 114°
2026-05-06 12:45 36.55009 27.49248 13811 ft 438 kts 114°
2026-05-06 12:45 36.52585 27.56094 12313 ft 427 kts 114°
2026-05-06 12:46 36.51394 27.59452 11564 ft 422 kts 114°
2026-05-06 12:46 36.50219 27.62767 10819 ft 417 kts 114°
2026-05-06 12:46 36.49056 27.66041 10085 ft 412 kts 114°
2026-05-06 12:46 36.47907 27.69272 9367 ft 407 kts 114°
2026-05-06 12:47 36.46880 27.72469 9163 ft 389 kts 108°
2026-05-06 12:47 36.46217 27.75648 9031 ft 371 kts 101°
2026-05-06 12:47 36.45806 27.78736 8903 ft 354 kts 99°
2026-05-06 12:47 36.45412 27.81693 8777 ft 339 kts 99°
2026-05-06 12:48 36.45030 27.84517 8650 ft 324 kts 100°
2026-05-06 12:48 36.44674 27.87157 8507 ft 295 kts 98°
2026-05-06 12:48 36.44695 27.89596 8083 ft 278 kts 77°
2026-05-06 12:48 36.45265 27.91878 7330 ft 276 kts 70°
2026-05-06 12:49 36.45926 27.94101 6576 ft 274 kts 70°
2026-05-06 12:49 36.46591 27.96296 5949 ft 267 kts 69°
2026-05-06 12:49 36.47237 27.98428 5373 ft 260 kts 69°
2026-05-06 12:49 36.47869 28.00506 4796 ft 255 kts 69°
2026-05-06 12:50 36.48487 28.02546 4219 ft 250 kts 70°
2026-05-06 12:50 36.49076 28.04560 3881 ft 246 kts 70°
2026-05-06 12:50 36.49649 28.06546 3628 ft 243 kts 70°
2026-05-06 12:50 36.50215 28.08508 3376 ft 239 kts 70°
2026-05-06 12:51 36.50774 28.10444 3124 ft 236 kts 70°
2026-05-06 12:51 36.51324 28.12353 2876 ft 233 kts 70°
2026-05-06 12:51 36.51867 28.14234 2748 ft 231 kts 70°
2026-05-06 12:51 36.52322 28.16138 2630 ft 226 kts 84°
2026-05-06 12:52 36.52179 28.17985 2511 ft 215 kts 110°
2026-05-06 12:52 36.51417 28.19536 2384 ft 210 kts 136°
2026-05-06 12:52 36.50211 28.20506 2258 ft 207 kts 161°
2026-05-06 12:52 36.48819 28.20923 2139 ft 206 kts 168°
2026-05-06 12:53 36.47422 28.21303 2039 ft 205 kts 168°
2026-05-06 12:53 36.46022 28.21421 1883 ft 197 kts 189°
2026-05-06 12:53 36.44802 28.20854 1753 ft 181 kts 213°
2026-05-06 12:53 36.43940 28.19841 1601 ft 163 kts 234°
2026-05-06 12:54 36.43464 28.18648 1419 ft 150 kts 250°
2026-05-06 12:54 36.43115 28.17451 1232 ft 145 kts 250°
2026-05-06 12:54 36.42775 28.16283 1046 ft 143 kts 250°
2026-05-06 12:54 36.42436 28.15123 859 ft 142 kts 250°
2026-05-06 12:55 36.42100 28.13972 673 ft 142 kts 250°
2026-05-06 12:55 36.41764 28.12824 487 ft 141 kts 250°
2026-05-06 12:55 36.41433 28.11681 301 ft 141 kts 250°
2026-05-06 12:55 36.41102 28.10541 106 ft 140 kts 249°
2026-05-06 12:56 36.40781 28.09450 31 ft 128 kts 250°
2026-05-06 12:56 36.40545 28.08647 28 ft 64 kts 250°
2026-05-06 12:56 36.40461 28.08356 28 ft 19 kts 250°
2026-05-06 12:56 36.40413 28.08183 27 ft 25 kts 251°
2026-05-06 12:57 36.40321 28.08004 29 ft 24 kts 225°
2026-05-06 12:57 36.40197 28.07875 28 ft 21 kts 195°
2026-05-06 12:57 36.40161 28.07962 28 ft 15 kts 71°
2026-05-06 12:57 36.40210 28.08125 28 ft 25 kts 70°
2026-05-06 12:58 36.40269 28.08327 28 ft 25 kts 69°
2026-05-06 12:58 36.40328 28.08526 28 ft 25 kts 70°
2026-05-06 12:58 36.40385 28.08722 28 ft 24 kts 70°
2026-05-06 12:58 36.40400 28.08870 28 ft 14 kts 96°
2026-05-06 12:59 36.40398 28.08979 28 ft 10 kts 82°
2026-05-06 12:59 36.40408 28.09033 28 ft 5 kts 68°
2026-05-06 12:59 36.40412 28.09056 28 ft 1 kts 98°
2026-05-06 12:59 36.40399 28.09068 28 ft 3 kts 148°
2026-05-06 13:00 36.40371 28.09082 28 ft 5 kts 161°
2026-05-06 13:00 36.40350 28.09091 28 ft 2 kts 160°